Location: Montjuich
(41.3670°N, 2.1670°E)
Time: 23:37:16
(UTC+02:00)

ISS - Visible Passes

Search period start: 28 March 2017 00:00
Search period end: 07 April 2017 00:00
Orbit: 399 x 409 km, 51.6° (Epoch: 29 March)

Date Brightness Start Highest point End Pass type
(mag) Time Alt. Az. Time Alt. Az. Time Alt. Az.
28 Mar -3.2 20:56:01 10° SSW 20:59:02 36° SE 21:01:55 11° ENE visible
28 Mar -1.6 22:32:36 10° W 22:34:37 26° WNW 22:34:37 26° WNW visible
29 Mar -3.0 21:39:54 10° WSW 21:43:04 48° NNW 21:45:05 20° NE visible
30 Mar -3.8 20:47:24 10° SW 20:50:39 89° NW 20:53:55 10° NE visible
30 Mar -1.4 22:25:01 10° WNW 22:27:29 20° NNW 22:28:00 19° N visible
31 Mar -1.8 21:32:04 10° W 21:34:54 27° NNW 21:37:45 10° NE visible
31 Mar -0.3 23:10:24 10° NW 23:10:43 11° NNW 23:10:43 11° NNW visible
01 Apr -2.5 20:39:16 10° W 20:42:22 40° NNW 20:45:29 10° NE visible
01 Apr -1.2 22:17:28 10° NW 22:19:30 15° N 22:20:37 13° NNE visible
02 Apr -1.3 21:24:27 10° WNW 21:26:49 18° NNW 21:29:11 10° NNE visible
02 Apr -0.6 23:02:24 10° NNW 23:03:04 12° NNW 23:03:04 12° NNW visible
03 Apr -1.1 22:09:44 10° NW 22:11:30 14° N 22:12:46 12° NNE visible
04 Apr -1.1 21:16:50 10° NW 21:18:45 15° N 21:20:40 10° NNE visible
04 Apr -0.9 22:53:59 10° NNW 22:55:04 14° NNW 22:55:04 14° NNW visible
05 Apr -1.3 22:01:33 10° NNW 22:03:28 14° N 22:04:40 12° NNE visible
06 Apr -1.2 21:08:56 10° NNW 21:10:41 14° N 21:12:26 10° NNE visible
06 Apr -1.3 22:45:19 10° NW 22:46:54 19° N 22:46:54 19° N visible
